Weather History for Istrana, Italy

Change the Weather History Date:

Saturday, May 11, 2013

  Actual Average Record
Temperature  
Mean Temperature 58 °F -  
Max Temperature 63 °F 75 °F 88 °F (2012)
Min Temperature 51 °F 55 °F 50 °F (1997)
Degree Days  
Heating Degree Days 7    
Growing Degree Days 8 (Base 50)    
Moisture  
Dew Point 54 °F    
Average Humidity 84    
Maximum Humidity 94    
Minimum Humidity 67    
Precipitation  
Precipitation 0.03 in 0.14 in - ()
Sea Level Pressure  
Sea Level Pressure 29.85 in    
Wind  
Wind Speed 4 mph ()    
Max Wind Speed 14 mph    
Max Gust Speed -    
Visibility 8.5 miles    
Events Rain    
Averages and records for this station are not official NWS values.
T = Trace of Precipitation, MM = Missing Value Source: Averaged Metar Reports

Daily Weather History Graph

Daily Weather History Graph

Search for Another Location

Airport:

Trip Planner

Search our weather history database for the weather conditions in past years. The results will help you decide how hot, cold, wet, or windy it might be!

Date:

Astronomy

May. 11, 2013 Rise Set
Actual Time 5:45 AM CEST 8:31 PM CEST
Civil Twilight 5:11 AM CEST 9:05 PM CEST
Nautical Twilight 4:27 AM CEST 9:49 PM CEST
Astronomical Twilight 3:37 AM CEST 10:40 PM CEST
Moon 6:39 AM CEST (5/11) 9:59 PM CEST (5/11)
Length of Visible Light 15h 54m
Length of Day
14h 46m
New Moon, 2% of the Moon is Illuminated
May 11
New Moon
May 18
First Quarter
May 25
Full
May 31
Last Quarter
Jun 8
New

Hourly Weather History & Observations

Time (CEST) Temp. Dew Point Humidity Pressure Visibility Wind Dir Wind Speed Gust Speed Precip Events Conditions
12:55 AM 60.8 °F 59.0 °F 94% 29.86 in - North - - N/A Rain Light Rain
1:55 AM 60.8 °F 59.0 °F 94% 29.86 in - North - - N/A Rain Light Rain
2:00 AM 61 °F 58 °F 87% 29.87 in 4 mi Calm Calm - - Rain Light Rain
2:55 AM 60.8 °F 57.2 °F 88% 29.86 in - North - - N/A Rain Light Rain
3:55 AM 60.8 °F 57.2 °F 88% 29.86 in - North - - N/A Rain Light Rain
4:55 AM 59.0 °F 55.4 °F 88% 29.83 in - North - - N/A Rain Light Rain
5:00 AM 59 °F 55 °F 82% 29.86 in 6 mi ENE 5.8 mph - - Rain Light Rain
5:55 AM 59.0 °F 53.6 °F 82% 29.83 in - North - - N/A Rain Light Rain
6:55 AM 57.2 °F 53.6 °F 88% 29.83 in - North - - N/A Rain Light Rain
7:55 AM 57.2 °F 53.6 °F 88% 29.83 in - North - - N/A Rain Light Rain
8:00 AM 58 °F 54 °F 83% 29.86 in 6 mi North 5.8 mph - - Rain Light Rain
8:55 AM 59.0 °F 55.4 °F 88% 29.86 in - North - - N/A Rain Light Rain
9:55 AM 59.0 °F 55.4 °F 88% 29.86 in - North - - N/A   Mostly Cloudy
10:55 AM 59.0 °F 55.4 °F 88% 29.86 in - North - - N/A Rain Light Rain
11:00 AM 59 °F 55 °F 82% 29.86 in 3 mi NW 8.1 mph - - Rain Light Rain
11:55 AM 59.0 °F 55.4 °F 88% 29.86 in - North - - N/A Rain Light Rain
12:55 PM 59.0 °F 55.4 °F 88% 29.86 in - North - - N/A   Mostly Cloudy
1:55 PM 60.8 °F 53.6 °F 77% 29.86 in - North - - N/A   Mostly Cloudy
2:00 PM 60 °F 54 °F 73% 29.86 in 6 mi North 8.1 mph - -   Partly Cloudy
2:55 PM 59.0 °F 53.6 °F 82% 29.83 in - North - - N/A   Mostly Cloudy
3:55 PM 62.6 °F 55.4 °F 77% 29.83 in - North - - N/A   Scattered Clouds
4:55 PM 62.6 °F 53.6 °F 72% 29.83 in - North - - N/A   Scattered Clouds
5:00 PM 62 °F 54 °F 67% 29.84 in 12 mi NE 13.8 mph - -   Scattered Clouds
5:55 PM 60.8 °F 53.6 °F 77% 29.83 in - North - - N/A   Scattered Clouds
6:55 PM 60.8 °F 53.6 °F 77% 29.83 in - North - - N/A   Scattered Clouds
7:55 PM 59.0 °F 53.6 °F 82% 29.83 in - North - - N/A   Scattered Clouds
8:00 PM 59 °F 53 °F 74% 29.85 in 12 mi Calm Calm - -   Scattered Clouds
8:55 PM 57.2 °F 53.6 °F 88% 29.86 in - North - - N/A   Partly Cloudy
9:55 PM 55.4 °F 51.8 °F 88% 29.86 in - North - - N/A   Scattered Clouds
10:55 PM 53.6 °F 50.0 °F 88% 29.86 in - North - - N/A   Partly Cloudy
11:00 PM 53 °F 50 °F 87% 29.87 in 19 mi Calm Calm - -   Scattered Clouds
11:55 PM 51.8 °F 50.0 °F 94% 29.86 in - North - - N/A   Mostly Cloudy